User: anonymous   Login
Location: Caltech
(34.1382°N, 118.1253°W)
Time: 09:02:54
(UTC-07:00)
Language:

GPS 2-04 Rocket1 - Orbit

View from above orbital plane
View from above orbital plane
View from above satellite
View from above satellite

Ground track
Ground track

The orbit data is extracted from the following two-line orbital elements,

1 20303U 89085B   16176.82972330  .00001465  00000-0  55987-4 0  9997
2 20303  35.6307 107.8575 0113516 257.6544 101.1454 15.21197341446056
Epoch (UTC): 24 June 2016 19:54:48
Eccentricity: 0.0113516
inclination: 35.6307°
perigee height: 424 km
apogee height: 580 km
right ascension of ascending node: 107.8575°
argument of perigee: 257.6544°
revolutions per day: 15.21197341
mean anomaly at epoch: 101.1454°
orbit number at epoch: 44605

The dashed part of the orbit path shows where the satellite is in the earth's shadow,  

DLR